Weather observations for the past three days for
Sparrevohn Airways Facilities Sector
| Date | Time (akdt) | Wind (kph) | Vis. (km) | Weather | Sky Cond. | Temperature (ºC) | Relative Humidity | Wind Chill (°C) | Heat Index (°C) | Pressure | Precipitation (cm) | ||||||
|---|---|---|---|---|---|---|---|---|---|---|---|---|---|---|---|---|---|
| Air | Dwpt | 6 hour | altimeter (cm) | sea level (mb) | 1 hr | 3 hr | 6 hr | ||||||||||
| Max. | Min. | ||||||||||||||||
| 04 | 20:55 | W 4 | 16.09 | Light Drizzle | FEW025 OVC055 | 4 | 3 | 93% | 75.06 | 1002.1 | |||||||
| 04 | 19:55 | E 7 | 16.09 | Overcast | FEW014 OVC060 | 4 | 2 | 87% | 2 | 75.06 | 1002.2 | ||||||
| 04 | 18:55 | Vrbl 7 | 16.09 | Overcast | FEW008 OVC019 | 3.6 | 2.4 | 92% | 2 | 75.08 | 1002.5 | 0.03 | |||||
| 04 | 17:55 | Vrbl 4 | 16.09 | Light Showers Rain | FEW013 OVC033 | 3 | 2 | 93% | 75.13 | 1003.1 | 0.03 | ||||||
| 04 | 16:55 | N 13 | 16.09 | Overcast | FEW012 OVC055 | 3 | 1 | 87% | 0 | 75.21 | 1004.0 | ||||||
| 04 | 15:55 | N 24 | 16.09 | Light Rain | OVC031 | 2.3 | 0.8 | 3.9 | 2 | 90% | -2 | 75.21 | 1004.1 | 0.03 | 0.43 | ||
| 04 | 14:55 | N 17 | 16.09 | Light Rain | OVC021 | 2 | 0 | 87% | -2 | 75.34 | 1006.0 | 0.05 | |||||
| 04 | 13:55 | Vrbl 9 | 16.09 | Light Rain | FEW024 OVC027 | 4 | 1 | 81% | 2 | 75.44 | 1007.0 | 0.18 | |||||
| 04 | 12:55 | NE 15 | 16.09 | Light Rain | FEW011 OVC031 | 2.7 | 0.8 | 87% | -1 | 75.51 | 1008.3 | 0.08 | 0.15 | ||||
| 04 | 11:55 | E 13 | 16.09 | Light Rain | OVC037 | 2 | 1 | 93% | -1 | 75.62 | 1009.5 | 0.05 | |||||
| 04 | 10:55 | E 11 | 16.09 | Light Rain | OVC041 | 2 | 2 | 100% | -1 | 75.64 | 1010.0 | 0.03 | |||||
| 04 | 09:55 | E 9 | 16.09 | Light Rain | OVC036 | 2.1 | 1.3 | 3.1 | 1.6 | 95% | -0 | 75.72 | 1010.8 | 0.05 | 0.08 | ||
| 04 | 08:55 | E 9 | 16.09 | Light Rain | OVC047 | 2 | 1 | 93% | -0 | 75.77 | 1011.6 | ||||||
| 04 | 06:55 | NE 13 | 16.09 | Drizzle | OVC041 | 2 | 0.4 | 89% | -1 | 75.87 | 1012.6 | 0.03 | 0.05 | ||||
| 04 | 05:55 | NE 9 | 16.09 | Light Rain | OVC037 | 2 | 0 | 87% | -0 | 75.92 | 1013.4 | 0.03 | |||||
| 04 | 04:55 | NE 7 | 16.09 | Light Rain | OVC042 | 2 | 1 | 93% | 0 | 75.95 | 1013.9 | ||||||
| 04 | 03:55 | NE 2 | 16.09 | Overcast | OVC055 | 2.9 | 0 | 4.9 | 2.4 | 81% | 75.97 | 1014.0 | |||||
| 04 | 02:55 | Calm | 16.09 | Overcast | FEW060 SCT085 OVC110 | 3 | 0 | 81% | 76 | 1014.5 | |||||||
| 04 | 01:55 | NW 4 | 16.09 | Overcast | OVC060 | 4 | 0 | 75% | 76.02 | 1014.9 | |||||||
| 04 | 00:55 | Calm | 16.09 | Overcast | BKN060 OVC090 | 3.6 | -0.1 | 77% | 76.05 | 1015.2 | |||||||
| 03 | 23:55 | Calm | 16.09 | Overcast | BKN070 OVC130 | 4 | 0 | 75% | 76.05 | 1015.3 | |||||||
| 03 | 22:55 | Vrbl 6 | 16.09 | Mostly Cloudy | BKN070 | 4 | 0 | 75% | 76.07 | 1015.5 | |||||||
| 03 | 21:55 | NW 7 | 16.09 | Overcast | OVC065 | 4.8 | -0.2 | 6.6 | 5 | 70% | 3 | 76.07 | 1015.6 | ||||
| 03 | 20:55 | Calm | 16.09 | Overcast | OVC060 | 5 | 0 | 70% | 76.07 | 1015.7 | |||||||
| 03 | 19:55 | W 6 | 16.09 | Overcast | OVC030 | 6 | 0 | 66% | 76.1 | 1016.1 | |||||||
| 03 | 18:55 | N 2 | 16.09 | Overcast | FEW036 OVC065 | 6.2 | -0.5 | 63% | 76.12 | 1016.3 | |||||||
| 03 | 17:55 | Calm | 16.09 | Mostly Cloudy | BKN055 | 6 | 0 | 66% | 76.15 | 1016.7 | |||||||
| 03 | 16:55 | W 11 | 16.09 | Mostly Cloudy | BKN043 | 6 | 0 | 66% | 4 | 76.2 | 1017.2 | ||||||
| 03 | 15:55 | SW 7 | 16.09 | Mostly Cloudy | BKN045 BKN180 | 5.9 | -1.1 | 6.4 | 2.9 | 61% | 5 | 76.23 | 1017.6 | ||||
| 03 | 14:55 | SW 6 | 16.09 | Overcast | FEW025 OVC042 | 5 | -1 | 66% | 76.23 | 1017.9 | |||||||
| 03 | 13:55 | SW 7 | 16.09 | Overcast | OVC045 | 5 | 0 | 70% | 4 | 76.28 | 1018.4 | ||||||
| 03 | 12:55 | S 7 | 16.09 | Mostly Cloudy | BKN047 | 5 | 0 | 70% | 4 | 76.28 | 1018.4 | ||||||
| 03 | 11:55 | S 7 | 16.09 | Mostly Cloudy | FEW017 BKN048 | 4 | 0 | 75% | 2 | 76.28 | 1018.7 | ||||||
| 03 | 10:55 | S 7 | 16.09 | Mostly Cloudy | BKN050 | 3 | 0 | 81% | 1 | 76.3 | 1018.9 | ||||||
| 03 | 09:55 | W 6 | 16.09 | Mostly Cloudy | BKN035 | 3 | -0.2 | 3.4 | 0.9 | 80% | 76.3 | 1018.9 | 0.03 | ||||
| 03 | 08:55 | S 4 | 16.09 | Partly Cloudy | FEW015 SCT036 | 3 | 0 | 81% | 76.28 | 1018.8 | |||||||
| 03 | 07:55 | Calm | 16.09 | Light Showers Rain | OVC028 | 2 | 0 | 87% | 76.28 | 1018.5 | |||||||
| 03 | 06:55 | SW 2 | 16.09 | Overcast | OVC026 | 1.4 | -0.2 | 89% | 76.28 | 1018.8 | 0.03 | ||||||
| 03 | 05:55 | NW 4 | 16.09 | Mostly Cloudy | FEW009 BKN026 BKN039 | 1 | 0 | 93% | 76.28 | 1018.6 | |||||||
| 03 | 04:55 | SW 4 | 16.09 | Overcast | FEW009 OVC020 | 1 | 0 | 93% | 76.28 | 1018.6 | 0.03 | ||||||
| 03 | 03:55 | S 7 | 16.09 | Light Showers Rain | FEW006 OVC022 | 1 | 0.2 | 2.2 | 0.4 | 94% | -1 | 76.25 | 1018.4 | 0.13 | |||
| 03 | 02:55 | S 19 | 16.09 | Light Showers Rain | FEW006 OVC019 | 1 | 0 | 93% | -3 | 76.28 | 1018.5 | ||||||
| 03 | 01:55 | S 7 | 11.27 | Light Snow | OVC005 | 1 | 0 | 93% | -1 | 76.25 | 1018.6 | 0.1 | |||||
| 03 | 00:55 | Vrbl 9 | 16.09 | Light Showers Rain | OVC008 | 1.6 | 0.4 | 92% | -1 | 76.23 | 1018.3 | 0.03 | |||||
| 02 | 23:55 | S 13 | 16.09 | Light Showers Rain | SCT007 OVC020 | 2 | 1 | 93% | -1 | 76.17 | 1017.6 | ||||||
| 02 | 22:55 | S 15 | 16.09 | Overcast | SCT007 BKN016 OVC044 | 2 | 1 | 93% | -2 | 76.15 | 1017.2 | 0.03 | |||||
| 02 | 21:55 | S 17 | 16.09 | Light Showers Rain | OVC008 | 1.9 | 0.7 | 4.3 | 1.7 | 92% | -2 | 76.1 | 1016.5 | 0.03 | 0.15 | ||
| 02 | 20:55 | S 15 G 35 | 16.09 | Light Showers Rain | OVC009 | 2 | 1 | 93% | -2 | 76.07 | 1016.0 | 0.03 | |||||
| 02 | 19:55 | S 17 | 16.09 | Overcast | OVC009 | 3 | 1 | 87% | -1 | 76.02 | 1015.4 | 0.03 | |||||
| 02 | 18:55 | SW 22 G 31 | 11.27 | Light Rain | OVC008 | 2.4 | 1 | 91% | -2 | 76 | 1015.1 | 0.03 | 0.08 | ||||
| 02 | 17:55 | S 19 | 16.09 | Mostly Cloudy | BKN010 | 3 | 2 | 93% | -1 | 75.97 | 1014.6 | 0.05 | |||||
| 02 | 16:55 | SW 20 | 6.44 | Light Showers Rain | OVC007 | 2 | 1 | 93% | -2 | 75.95 | 1014.5 | 0.03 | |||||
| 02 | 15:55 | S 26 G 37 | 16.09 | Light Showers Rain | BKN021 | 4.1 | 0.5 | 4 | 0.2 | 78% | -0 | 75.95 | 1014.1 | ||||
| 02 | 14:55 | S 24 G 39 | 16.09 | Mostly Cloudy | BKN018 | 4 | -1 | 70% | -0 | 75.9 | 1013.6 | ||||||
| 02 | 13:55 | S 26 G 39 | 16.09 | Light Showers Rain | OVC013 | 2 | 0 | 87% | -3 | 75.87 | 1013.5 | ||||||
| 02 | 12:55 | S 26 G 39 | 11.27 | Light Rain | OVC012 | 1.3 | -0.4 | 89% | -4 | 75.84 | 1013.0 | ||||||
| 02 | 11:55 | S 28 G 44 | 12.87 | Light Showers Rain | OVC011 | 1 | -1 | 87% | -5 | 75.79 | 1012.3 | ||||||
| 02 | 10:55 | S 30 | 12.87 | Light Snow | OVC007 | 1 | -1 | 87% | -5 | 75.72 | 1011.5 | ||||||
| 02 | 09:55 | S 37 G 44 | 9.66 | Light Snow and Breezy | OVC007 | 0.3 | -0.7 | 0.6 | -0.1 | 93% | -6 | 75.62 | 1010.2 | ||||
| 02 | 08:55 | S 26 G 41 | 4.02 | Light Snow | OVC006 | 0 | -1 | 93% | -6 | 75.54 | 1009.2 | ||||||
| 02 | 07:55 | S 33 G 44 | 9.66 | Light Snow and Breezy | OVC007 | 0 | -1 | 93% | -6 | 75.44 | 1007.8 | ||||||
| 02 | 06:55 | S 28 G 44 | 2.41 | Light Snow | OVC008 | 0 | -1 | 93% | -6 | 75.34 | 1006.5 | ||||||
| 02 | 05:55 | S 28 G 50 | 11.27 | Light Snow | OVC008 | 0 | -1 | 93% | -6 | 75.29 | 1005.7 | ||||||
| 02 | 04:55 | S 26 G 39 | 9.66 | Light Snow | OVC008 | 0 | -1 | 93% | -6 | 75.23 | 1004.9 | ||||||
| 02 | 03:55 | S 28 G 44 | 16.09 | Light Snow | OVC009 | 0.5 | -0.9 | 1.8 | 0.5 | 90% | -5 | 75.21 | 1004.3 | 0.03 | |||
| 02 | 02:55 | S 28 G 50 | 16.09 | Light Rain | OVC010 | 1 | -1 | 87% | -5 | 75.13 | 1003.3 | ||||||
| 02 | 01:55 | S 35 G 44 | 16.09 | Overcast and Breezy | OVC010 | 1 | -1 | 87% | -5 | 75.03 | 1001.9 | ||||||
| 02 | 00:55 | S 24 G 43 | 16.09 | Light Showers Rain | OVC009 | 1 | -0.4 | 91% | -4 | 74.93 | 1000.6 | 0.03 | |||||
| 01 | 23:55 | S 26 G 37 | 16.09 | Light Rain Snow | OVC008 | 1 | 0 | 93% | -4 | 74.83 | 999.3 | 0.03 | |||||
| 01 | 22:55 | S 20 G 37 | 16.09 | Light Rain | OVC009 | 1 | 0 | 93% | -4 | 74.75 | 997.9 | ||||||
| 01 | 21:55 | S 30 G 44 | 16.09 | Light Showers Rain | OVC015 | 1.6 | -0.4 | 3 | 1.2 | 87% | -4 | 74.65 | 996.5 | 0.08 | |||
| Date | Time (akdt) | Wind (kph) | Vis. (km) | Weather | Sky Cond. | Air | Dwpt | Max. | Min. | Relative Humidity | Wind Chill (°C) | Heat Index (°C) | altimeter (cm) | sea level (mb) | 1 hr | 3 hr | 6 hr |
| 6 hour | |||||||||||||||||
| Temperature (ºC) | Pressure | Precipitation (cm) | |||||||||||||||